Hourly Data Report for January 06, 2022

TERRACE A
BRITISH COLUMBIA
Current Station Operator: NAVCAN

54°28'07.000" N
128°34'42.000" W
217.30 m
1068134
71951
YXT

Download Data

Hourly Data (January 2022)
Hourly Data Report for January 6, 2022
TIME
LST
Temp Definition
°C
Dew Point Definition
°C
Rel Hum Definition
%
Precip. Amount Definition
mm

Wind Dir Definition
10's deg

Wind Spd Definition
km/h
Visibility Definition
km
Stn Press Definition
kPa
Hmdx Definition


Wind Chill Definition


Weather Definition


00:00 -18.0 -24.2 59 LegendMM 1 46 24.1 99.49   -32 Blowing Snow
01:00 -18.0 -24.2 59 LegendMM 1 45 24.1 99.35   -32 Blowing Snow
02:00 -17.6 -24.2 57 LegendMM 1 55 24.1 99.20   -33 Blowing Snow
03:00 -18.0 -24.2 59 LegendMM 1 57 24.1 99.04   -33 Blowing Snow
04:00 -17.8 -24.2 58 LegendMM 36 52 24.1 98.90   -33 Blowing Snow
05:00 -17.8 -24.0 59 LegendMM 1 49 24.1 98.78   -32 Blowing Snow
06:00 -17.9 -23.4 63 LegendMM 1 44 11.3 98.65   -32 Blowing Snow
07:00 -17.9 -23.4 63 LegendMM 1 50 16.1 98.57   -33 Blowing Snow
08:00 -18.0 -23.6 63 LegendMM 36 46 12.9 98.46   -32 Blowing Snow
09:00 -17.7 -24.1 58 LegendMM 1 43 32.2 98.41   -31 Blowing Snow
10:00 -17.7 -24.0 59 LegendMM 1 49 32.2 98.34   -32 Blowing Snow
11:00 -17.3 -23.9 57 LegendMM 1 43 32.2 98.29   -31 Blowing Snow
12:00 -17.1 -23.8 57 LegendMM 1 44 32.2 98.19   -31 Blowing Snow
13:00 -16.8 -23.4 57 LegendMM 1 44 32.2 98.11   -30 Blowing Snow
14:00 -16.7 -23.1 58 LegendMM 1 48 32.2 97.99   -31 Blowing Snow
15:00 -16.9 -23.1 59 LegendMM 1 49 32.2 97.95   -31 Blowing Snow
16:00 -17.1 -21.8 68 LegendMM 36 41 16.1 97.84   -30 Snow,Blowing Snow
17:00 -17.3 -21.5 70 LegendMM 36 50 4.8 97.77   -32 Snow,Blowing Snow
18:00 -17.4 -21.2 73 LegendMM 35 46 3.2 97.72   -31 Snow,Blowing Snow
19:00 -17.2 -20.8 74 LegendMM 1 40 1.6 97.63   -30 Snow,Blowing Snow
20:00 -17.0 -21.1 71 LegendMM 1 40 2.4 97.50   -30 Snow,Blowing Snow
21:00 -16.9 -21.3 69 LegendMM 1 41 4.0 97.51   -30 Snow,Blowing Snow
22:00 -16.7 -21.5 67 LegendMM 1 37 16.1 97.44   -29 Snow,Blowing Snow
23:00 -16.9 -21.7 67 LegendMM 36 41 24.1 97.41   -30 Snow,Blowing Snow

Notes on Data Quality.

Legend

  • E = Estimated
  • M = Missing
  • NA = Not Available*
  • [empty] = Indicates an unobserved value
Date modified: